| time (UTC) | temp C | wind direction | speed KPH | gust KPH | rain 1hr cm | rain 24hr cm | rain mn cm | humidity % | barometer mb |
| 20260504050311 | 21 | 36 | 1.6 | 3.2 | 0.00 | 0.00 | 0.00 | 99 | 1014.3 |
| 20260504045808 | 21 | 27 | 0.0 | 0.0 | 0.00 | 0.00 | 0.00 | 99 | 1014.6 |
| 20260504045304 | 21 | 332 | 1.6 | 3.2 | 0.00 | 0.00 | 0.00 | 99 | 1015.0 |
| 20260504044800 | 21 | 332 | 3.2 | 4.8 | 0.00 | 0.00 | 0.00 | 99 | 1014.7 |
| 20260504044258 | 21 | 33 | 0.0 | 1.6 | 0.00 | 0.00 | 0.00 | 99 | 1014.6 |
| 20260504043755 | 21 | 336 | 0.0 | 0.0 | 0.00 | 0.00 | 0.00 | 99 | 1014.5 |
| 20260504043251 | 21 | 4 | 1.6 | 3.2 | 0.00 | 0.00 | 0.00 | 99 | 1014.7 |
| 20260504042749 | 21 | 38 | 1.6 | 3.2 | 0.00 | 0.00 | 0.00 | 99 | 1014.6 |
| 20260504042245 | 21 | 345 | 1.6 | 1.6 | 0.00 | 0.00 | 0.00 | 99 | 1014.7 |
| 20260504041742 | 21 | 39 | 1.6 | 3.2 | 0.00 | 0.00 | 0.00 | 99 | 1015.0 |
| 20260504041238 | 21 | 323 | 1.6 | 1.6 | 0.00 | 0.00 | 0.00 | 99 | 1015.1 |
| 20260504040734 | 21 | 345 | 1.6 | 3.2 | 0.00 | 0.00 | 0.00 | 99 | 1014.7 |
| 20260504040232 | 21 | 39 | 0.0 | 1.6 | 0.00 | 0.00 | 0.00 | 99 | 1014.8 |
| 20260504035728 | 21 | 3 | 0.0 | 1.6 | 0.00 | 2.97 | 2.97 | 99 | 1014.5 |
| 20260504035225 | 21 | 337 | 0.0 | 1.6 | 0.00 | 2.97 | 2.97 | 99 | 1014.6 |
| 20260504034723 | 21 | 10 | 1.6 | 1.6 | 0.00 | 2.97 | 2.97 | 99 | 1014.5 |
| 20260504034220 | 21 | 342 | 3.2 | 4.8 | 0.00 | 2.97 | 2.97 | 99 | 1014.6 |
| 20260504033717 | 21 | 345 | 0.0 | 1.6 | 0.00 | 2.97 | 2.97 | 99 | 1014.8 |
| 20260504033215 | 21 | 343 | 3.2 | 4.8 | 0.00 | 2.97 | 2.97 | 99 | 1014.9 |
| 20260504032711 | 22 | 344 | 3.2 | 3.2 | 0.00 | 2.97 | 2.97 | 98 | 1014.8 |
| 20260504032209 | 22 | 339 | 3.2 | 3.2 | 0.00 | 2.97 | 2.97 | 98 | 1014.8 |
| 20260504031705 | 22 | 357 | 1.6 | 3.2 | 0.00 | 2.97 | 2.97 | 98 | 1014.9 |
| 20260504031202 | 22 | 335 | 4.8 | 4.8 | 0.00 | 2.97 | 2.97 | 98 | 1014.7 |
| 20260504030658 | 22 | 0 | 4.8 | 4.8 | 0.00 | 2.97 | 2.97 | 98 | 1014.9 |
| 20260504030156 | 22 | 322 | 1.6 | 3.2 | 0.00 | 2.97 | 2.97 | 98 | 1014.9 |
| 20260504025652 | 22 | 3 | 3.2 | 4.8 | 0.00 | 2.97 | 2.97 | 98 | 1015.1 |
| 20260504025149 | 22 | 332 | 3.2 | 3.2 | 0.00 | 2.97 | 2.97 | 98 | 1015.0 |
| 20260504024646 | 22 | 353 | 3.2 | 3.2 | 0.00 | 2.97 | 2.97 | 98 | 1015.1 |
| 20260504024142 | 22 | 334 | 3.2 | 3.2 | 0.00 | 2.97 | 2.97 | 98 | 1015.2 |
| 20260504023639 | 22 | 330 | 1.6 | 3.2 | 0.00 | 2.97 | 2.97 | 98 | 1015.0 |
| 20260504023130 | 22 | 332 | 3.2 | 4.8 | 0.00 | 2.97 | 2.97 | 98 | 1015.0 |
| 20260504022626 | 22 | 335 | 0.0 | 1.6 | 0.00 | 2.97 | 2.97 | 98 | 1015.0 |
| 20260504022121 | 22 | 352 | 1.6 | 1.6 | 0.00 | 2.97 | 2.97 | 98 | 1014.8 |
| 20260504021620 | 22 | 330 | 1.6 | 3.2 | 0.00 | 2.97 | 2.97 | 98 | 1014.9 |
| 20260504021116 | 22 | 330 | 1.6 | 3.2 | 0.00 | 2.97 | 2.97 | 98 | 1014.8 |
| 20260504020614 | 22 | 327 | 3.2 | 3.2 | 0.00 | 2.97 | 2.97 | 98 | 1014.8 |
| 20260504020109 | 22 | 354 | 0.0 | 0.0 | 0.00 | 2.97 | 2.97 | 98 | 1014.4 |
| 20260504015606 | 22 | 348 | 3.2 | 6.4 | 0.00 | 2.97 | 2.97 | 98 | 1014.4 |
| 20260504015102 | 22 | 349 | 3.2 | 3.2 | 0.00 | 2.97 | 2.97 | 98 | 1014.5 |
| 20260504014558 | 22 | 330 | 3.2 | 3.2 | 0.00 | 2.97 | 2.97 | 98 | 1014.5 |
| 20260504014056 | 22 | 348 | 3.2 | 3.2 | 0.00 | 2.97 | 2.97 | 98 | 1014.4 |
| 20260504013553 | 22 | 355 | 0.0 | 1.6 | 0.00 | 2.97 | 2.97 | 98 | 1014.3 |
| 20260504013050 | 22 | 335 | 3.2 | 3.2 | 0.00 | 2.97 | 2.97 | 98 | 1014.3 |
| 20260504012547 | 22 | 341 | 1.6 | 3.2 | 0.00 | 2.97 | 2.97 | 97 | 1014.5 |
| 20260504012045 | 22 | 333 | 3.2 | 3.2 | 0.00 | 2.97 | 2.97 | 97 | 1014.3 |
| 20260504011542 | 22 | 356 | 4.8 | 6.4 | 0.00 | 2.97 | 2.97 | 97 | 1014.3 |
| 20260504011038 | 22 | 332 | 4.8 | 6.4 | 0.00 | 2.97 | 2.97 | 97 | 1014.6 |
| 20260504010533 | 22 | 358 | 3.2 | 4.8 | 0.00 | 2.97 | 2.97 | 97 | 1014.3 |
| 20260504010030 | 22 | 331 | 3.2 | 3.2 | 0.00 | 2.97 | 2.97 | 97 | 1014.3 |
| 20260504005527 | 22 | 348 | 3.2 | 3.2 | 0.00 | 2.97 | 2.97 | 97 | 1014.4 |
| 20260504005024 | 22 | 5 | 1.6 | 3.2 | 0.00 | 2.97 | 2.97 | 97 | 1014.5 |
| 20260504004522 | 22 | 11 | 4.8 | 6.4 | 0.00 | 2.97 | 2.97 | 96 | 1014.3 |
| 20260504004019 | 22 | 355 | 3.2 | 6.4 | 0.00 | 2.97 | 2.97 | 96 | 1014.2 |
| 20260504003515 | 23 | 331 | 1.6 | 1.6 | 0.00 | 2.97 | 2.97 | 96 | 1014.2 |
| 20260504003012 | 23 | 20 | 3.2 | 3.2 | 0.00 | 2.97 | 2.97 | 96 | 1014.1 |
| 20260504002509 | 23 | 353 | 4.8 | 4.8 | 0.00 | 2.97 | 2.97 | 96 | 1014.1 |
| 20260504002006 | 23 | 332 | 1.6 | 3.2 | 0.00 | 2.97 | 2.97 | 96 | 1014.0 |
| 20260504001503 | 23 | 11 | 4.8 | 4.8 | 0.00 | 2.97 | 2.97 | 95 | 1013.9 |
| 20260504000959 | 23 | 19 | 4.8 | 4.8 | 0.00 | 2.97 | 2.97 | 95 | 1014.1 |
| 20260504000457 | 23 | 11 | 3.2 | 3.2 | 0.00 | 2.97 | 2.97 | 94 | 1013.8 |
| 20260503235954 | 23 | 346 | 3.2 | 6.4 | 0.00 | 2.97 | 2.97 | 94 | 1013.8 |
| 20260503235452 | 23 | 57 | 0.0 | 1.6 | 0.00 | 2.97 | 2.97 | 94 | 1013.8 |
| 20260503234949 | 23 | 22 | 1.6 | 1.6 | 0.00 | 2.97 | 2.97 | 94 | 1013.6 |
| 20260503234446 | 23 | 43 | 4.8 | 6.4 | 0.00 | 2.97 | 2.97 | 94 | 1013.6 |
| 20260503233945 | 23 | 328 | 1.6 | 3.2 | 0.00 | 2.97 | 2.97 | 95 | 1013.6 |
| 20260503233440 | 23 | 351 | 1.6 | 1.6 | 0.00 | 2.97 | 2.97 | 95 | 1013.8 |
| 20260503232937 | 23 | 38 | 0.0 | 1.6 | 0.00 | 2.97 | 2.97 | 95 | 1013.7 |
| 20260503232434 | 23 | 331 | 3.2 | 3.2 | 0.00 | 2.97 | 2.97 | 95 | 1013.7 |
| 20260503231932 | 23 | 340 | 0.0 | 1.6 | 0.00 | 2.97 | 2.97 | 94 | 1013.7 |
| 20260503231429 | 24 | 81 | 3.2 | 3.2 | 0.00 | 2.97 | 2.97 | 94 | 1013.6 |
| 20260503230926 | 24 | 6 | 3.2 | 4.8 | 0.00 | 2.97 | 2.97 | 94 | 1013.5 |
| 20260503230422 | 24 | 31 | 1.6 | 1.6 | 0.00 | 2.97 | 2.97 | 93 | 1013.4 |
| 20260503225920 | 24 | 330 | 4.8 | 4.8 | 0.00 | 2.97 | 2.97 | 93 | 1013.3 |
| 20260503225416 | 24 | 333 | 1.6 | 1.6 | 0.00 | 2.97 | 2.97 | 93 | 1013.3 |
| 20260503224912 | 24 | 337 | 6.4 | 6.4 | 0.00 | 2.97 | 2.97 | 93 | 1013.2 |
| 20260503224409 | 24 | 19 | 1.6 | 3.2 | 0.00 | 2.97 | 2.97 | 94 | 1013.2 |
| 20260503223907 | 24 | 9 | 4.8 | 6.4 | 0.00 | 2.97 | 2.97 | 94 | 1013.3 |
| 20260503223405 | 24 | 346 | 3.2 | 3.2 | 0.00 | 2.97 | 2.97 | 94 | 1013.2 |
| 20260503222900 | 24 | 6 | 3.2 | 3.2 | 0.00 | 2.97 | 2.97 | 93 | 1013.3 |
| 20260503222359 | 24 | 345 | 3.2 | 3.2 | 0.00 | 2.97 | 2.97 | 93 | 1013.5 |
| 20260503221856 | 24 | 353 | 1.6 | 3.2 | 0.00 | 2.97 | 2.97 | 93 | 1013.5 |
| 20260503221355 | 24 | 357 | 0.0 | 1.6 | 0.00 | 2.97 | 2.97 | 93 | 1013.3 |
| 20260503220850 | 24 | 343 | 1.6 | 1.6 | 0.00 | 2.97 | 2.97 | 93 | 1013.4 |
| 20260503220347 | 24 | 324 | 4.8 | 4.8 | 0.00 | 2.97 | 2.97 | 93 | 1013.5 |
| 20260503215844 | 24 | 353 | 1.6 | 1.6 | 0.00 | 2.97 | 2.97 | 93 | 1013.6 |
| 20260503215342 | 25 | 7 | 6.4 | 9.7 | 0.00 | 2.97 | 2.97 | 93 | 1013.6 |
| 20260503214839 | 25 | 337 | 6.4 | 6.4 | 0.00 | 2.97 | 2.97 | 92 | 1013.6 |
| 20260503214336 | 25 | 31 | 3.2 | 4.8 | 0.00 | 2.97 | 2.97 | 91 | 1013.6 |
| 20260503213833 | 25 | 337 | 6.4 | 6.4 | 0.00 | 2.97 | 2.97 | 90 | 1013.7 |
| 20260503213331 | 25 | 339 | 1.6 | 1.6 | 0.00 | 2.97 | 2.97 | 91 | 1013.6 |
| 20260503212828 | 25 | 331 | 4.8 | 4.8 | 0.00 | 2.97 | 2.97 | 90 | 1013.9 |
| 20260503212326 | 25 | 340 | 1.6 | 1.6 | 0.00 | 2.97 | 2.97 | 91 | 1013.7 |
| 20260503211823 | 25 | 350 | 3.2 | 3.2 | 0.00 | 2.97 | 2.97 | 90 | 1013.7 |
| 20260503211319 | 25 | 36 | 6.4 | 6.4 | 0.00 | 2.97 | 2.97 | 90 | 1013.9 |
| 20260503210819 | 25 | 354 | 3.2 | 3.2 | 0.00 | 2.97 | 2.97 | 89 | 1013.8 |
| 20260503210317 | 25 | 355 | 0.0 | 1.6 | 0.00 | 2.97 | 2.97 | 89 | 1013.9 |
| 20260503205812 | 25 | 354 | 3.2 | 6.4 | 0.00 | 2.97 | 2.97 | 89 | 1013.9 |
| 20260503205309 | 25 | 332 | 1.6 | 1.6 | 0.00 | 2.97 | 2.97 | 88 | 1014.0 |
| 20260503204805 | 25 | 6 | 4.8 | 4.8 | 0.00 | 2.97 | 2.97 | 88 | 1013.9 |
| 20260503204303 | 26 | 332 | 4.8 | 4.8 | 0.00 | 2.97 | 2.97 | 88 | 1014.1 |
| 20260503203800 | 26 | 41 | 1.6 | 1.6 | 0.00 | 2.97 | 2.97 | 87 | 1014.0 |
| 20260503203257 | 26 | 40 | 1.6 | 1.6 | 0.00 | 2.97 | 2.97 | 85 | 1013.9 |
| 20260503202754 | 26 | 341 | 0.0 | 1.6 | 0.00 | 2.97 | 2.97 | 85 | 1014.0 |
| 20260503202252 | 26 | 47 | 0.0 | 1.6 | 0.00 | 2.97 | 2.97 | 87 | 1013.9 |
| 20260503201744 | 26 | 33 | 3.2 | 3.2 | 0.00 | 2.97 | 2.97 | 87 | 1013.9 |
| 20260503201241 | 26 | 39 | 1.6 | 1.6 | 0.00 | 2.97 | 2.97 | 87 | 1014.0 |
| 20260503200738 | 26 | 1 | 0.0 | 0.0 | 0.00 | 2.97 | 2.97 | 88 | 1013.9 |
| 20260503200234 | 26 | 333 | 3.2 | 4.8 | 0.00 | 2.97 | 2.97 | 88 | 1013.8 |
| 20260503195731 | 26 | 68 | 1.6 | 1.6 | 0.00 | 2.97 | 2.97 | 88 | 1013.9 |
| 20260503195228 | 26 | 40 | 3.2 | 4.8 | 0.00 | 2.97 | 2.97 | 87 | 1014.0 |
| 20260503194726 | 26 | 108 | 1.6 | 3.2 | 0.00 | 2.97 | 2.97 | 87 | 1014.1 |
| 20260503194221 | 26 | 359 | 1.6 | 1.6 | 0.00 | 2.97 | 2.97 | 88 | 1014.1 |
| 20260503193718 | 26 | 340 | 0.0 | 0.0 | 0.00 | 2.97 | 2.97 | 89 | 1014.4 |
| 20260503193214 | 26 | 3 | 1.6 | 1.6 | 0.00 | 2.97 | 2.97 | 88 | 1014.3 |
| 20260503192709 | 26 | 340 | 3.2 | 4.8 | 0.00 | 2.97 | 2.97 | 88 | 1014.6 |
| 20260503192205 | 26 | 68 | 4.8 | 6.4 | 0.00 | 2.97 | 2.97 | 89 | 1014.6 |
| 20260503191702 | 26 | 336 | 0.0 | 0.0 | 0.00 | 2.97 | 2.97 | 88 | 1014.6 |
| 20260503191159 | 26 | 54 | 0.0 | 0.0 | 0.00 | 2.97 | 2.97 | 86 | 1014.5 |
| 20260503190656 | 26 | 312 | 6.4 | 9.7 | 0.00 | 2.97 | 2.97 | 86 | 1014.7 |
| 20260503190152 | 26 | 41 | 0.0 | 0.0 | 0.00 | 2.97 | 2.97 | 88 | 1014.8 |
| 20260503185649 | 26 | 37 | 1.6 | 1.6 | 0.00 | 2.97 | 2.97 | 89 | 1015.0 |
| 20260503185144 | 27 | 332 | 3.2 | 4.8 | 0.00 | 2.97 | 2.97 | 88 | 1014.9 |
| 20260503184640 | 26 | 333 | 3.2 | 3.2 | 0.00 | 2.97 | 2.97 | 90 | 1015.0 |
| 20260503184136 | 26 | 331 | 1.6 | 3.2 | 0.00 | 2.97 | 2.97 | 91 | 1014.9 |
| 20260503183633 | 25 | 337 | 1.6 | 1.6 | 0.00 | 2.97 | 2.97 | 91 | 1014.9 |
| 20260503183130 | 25 | 40 | 3.2 | 4.8 | 0.00 | 2.97 | 2.97 | 92 | 1014.9 |
| 20260503182628 | 25 | 340 | 1.6 | 3.2 | 0.00 | 2.97 | 2.97 | 93 | 1014.9 |
| 20260503182126 | 25 | 318 | 3.2 | 4.8 | 0.00 | 2.97 | 2.97 | 93 | 1014.9 |
| 20260503181623 | 25 | 331 | 6.4 | 9.7 | 0.00 | 2.97 | 2.97 | 93 | 1015.0 |
| 20260503181120 | 25 | 326 | 6.4 | 6.4 | 0.00 | 2.97 | 2.97 | 93 | 1015.1 |
| 20260503180617 | 25 | 338 | 3.2 | 4.8 | 0.00 | 2.97 | 2.97 | 93 | 1015.2 |
| 20260503180115 | 25 | 325 | 3.2 | 3.2 | 0.00 | 2.97 | 2.97 | 92 | 1015.1 |
| 20260503175611 | 25 | 352 | 3.2 | 3.2 | 0.00 | 2.97 | 2.97 | 91 | 1015.1 |
| 20260503175108 | 25 | 352 | 1.6 | 3.2 | 0.00 | 2.97 | 2.97 | 91 | 1015.3 |
| 20260503174605 | 25 | 330 | 3.2 | 3.2 | 0.00 | 2.97 | 2.97 | 91 | 1015.3 |
| 20260503174102 | 25 | 354 | 1.6 | 3.2 | 0.00 | 2.97 | 2.97 | 91 | 1015.3 |
| 20260503173557 | 25 | 330 | 4.8 | 4.8 | 0.00 | 2.97 | 2.97 | 90 | 1015.7 |
| 20260503173054 | 25 | 3 | 3.2 | 4.8 | 0.00 | 2.97 | 2.97 | 89 | 1015.5 |
| 20260503172551 | 26 | 350 | 4.8 | 4.8 | 0.00 | 2.97 | 2.97 | 89 | 1015.4 |
| 20260503172048 | 26 | 333 | 1.6 | 1.6 | 0.00 | 2.97 | 2.97 | 89 | 1015.4 |
| 20260503171544 | 26 | 34 | 3.2 | 4.8 | 0.00 | 2.97 | 2.97 | 89 | 1015.4 |
| 20260503171042 | 26 | 351 | 3.2 | 3.2 | 0.00 | 2.97 | 2.97 | 89 | 1015.4 |
| 20260503170538 | 26 | 10 | 1.6 | 1.6 | 0.00 | 2.97 | 2.97 | 88 | 1015.7 |
| 20260503150925 | 25 | 38 | 0.0 | 0.0 | 0.00 | 2.97 | 2.97 | 92 | 1016.0 |
| 20260503150421 | 25 | 40 | 1.6 | 1.6 | 0.00 | 2.97 | 2.97 | 93 | 1016.0 |
| 20260503131308 | 23 | 40 | 0.0 | 1.6 | 0.00 | 2.97 | 2.97 | 99 | 1014.1 |
| 20260503130806 | 22 | 0 | 0.0 | 0.0 | 0.00 | 2.97 | 2.97 | 99 | 1014.3 |
| 20260503130303 | 22 | 34 | 1.6 | 3.2 | 0.00 | 2.97 | 2.97 | 99 | 1014.2 |
| 20260503110651 | 22 | 320 | 0.0 | 0.0 | 0.00 | 2.97 | 2.97 | 99 | 1013.6 |
| 20260503110148 | 22 | 316 | 0.0 | 0.0 | 0.13 | 2.97 | 2.97 | 99 | 1013.4 |
| 20260503100115 | 22 | 328 | 3.2 | 3.2 | 0.30 | 0.18 | 0.18 | 99 | 1012.8 |
| 20260503081452 | 22 | 329 | 0.0 | 0.0 | 0.00 | 0.00 | 0.00 | 95 | 1013.0 |
| 20260503080949 | 22 | 329 | 0.0 | 0.0 | 0.00 | 0.00 | 0.00 | 95 | 1013.1 |
| 20260503080445 | 22 | 329 | 0.0 | 0.0 | 0.00 | 0.00 | 0.00 | 95 | 1013.0 |